Weather History for Laredo, TX

Change the Weather History Date:

Monday, February 4, 2013

  Actual Average Record
Temperature  
Mean Temperature 73 °F 59 °F  
Max Temperature 85 °F 70 °F 98 °F (2008)
Min Temperature 60 °F 48 °F 24 °F (2011)
Degree Days  
Heating Degree Days 0 7  
Month to date heating degree days 0 31  
Since 1 July heating degree days 431 710  
Cooling Degree Days 8 1  
Month to date cooling degree days 14 4  
Year to date cooling degree days 92 32  
Growing Degree Days 22 (Base 50)    
Moisture  
Dew Point 53 °F    
Average Humidity 59    
Maximum Humidity 83    
Minimum Humidity 30    
Precipitation  
Precipitation 0.00 in 0.03 in 1.40 in (1919)
Month to date precipitation T 0.13  
Year to date precipitation 0.44 1.03  
Sea Level Pressure  
Sea Level Pressure 29.89 in    
Wind  
Wind Speed 6 mph (SE)    
Max Wind Speed 15 mph    
Max Gust Speed 22 mph    
Visibility 10 miles    
Events      
T = Trace of Precipitation, MM = Missing Value Source: NWS Daily Summary

Daily Weather History Graph

Daily Weather History Graph

Search for Another Location

Airport:

Trip Planner

Search our weather history database for the weather conditions in past years. The results will help you decide how hot, cold, wet, or windy it might be!

Date:

Astronomy

Feb. 04, 2013 Rise Set
Actual Time 7:22 AM CST 6:21 PM CST
Civil Twilight 6:58 AM CST 6:45 PM CST
Nautical Twilight 6:30 AM CST 7:13 PM CST
Astronomical Twilight 6:02 AM CST 7:41 PM CST
Moon 1:53 AM CST (2/4) 12:54 PM CST (2/4)
Length of Visible Light 11h 47m
Length of Day
10h 59m
Last Quarter, 37% of the Moon is Illuminated
Feb 4
Last Quarter
Feb 10
New
Feb 17
First Quarter
Feb 25
Full
Mar 4
Last Quarter

Hourly Weather History & Observations

Time (CST) Temp. Heat Index Dew Point Humidity Pressure Visibility Wind Dir Wind Speed Gust Speed Precip Events Conditions
12:56 AM 63.9 °F - 54.9 °F 72% 29.98 in 10.0 mi SSE 11.5 mph - N/A   Partly Cloudy
1:37 AM 64.4 °F - 55.4 °F 73% 29.99 in 10.0 mi SSE 11.5 mph - N/A   Mostly Cloudy
1:56 AM 63.0 °F - 54.9 °F 75% 29.96 in 10.0 mi SSE 11.5 mph - N/A   Mostly Cloudy
2:15 AM 62.6 °F - 55.4 °F 77% 29.98 in 10.0 mi SSE 11.5 mph - N/A   Scattered Clouds
2:27 AM 62.6 °F - 55.4 °F 77% 29.96 in 10.0 mi SSE 10.4 mph - N/A   Mostly Cloudy
2:36 AM 62.6 °F - 55.4 °F 77% 29.97 in 10.0 mi SSE 9.2 mph - N/A   Scattered Clouds
2:56 AM 61.9 °F - 54.9 °F 78% 29.94 in 10.0 mi SSE 8.1 mph - N/A   Partly Cloudy
4:56 AM 61.0 °F - 54.9 °F 80% 29.93 in 10.0 mi East 5.8 mph - N/A   Mostly Cloudy
5:39 AM 60.8 °F - 55.4 °F 82% 29.95 in 10.0 mi Calm Calm - N/A   Scattered Clouds
5:56 AM 59.9 °F - 54.0 °F 81% 29.93 in 10.0 mi Calm Calm - N/A   Clear
6:56 AM 59.9 °F - 54.9 °F 83% 29.91 in 10.0 mi SE 5.8 mph - N/A   Clear
7:56 AM 61.9 °F - 55.9 °F 81% 29.91 in 10.0 mi SE 8.1 mph - N/A   Clear
8:56 AM 64.9 °F - 57.9 °F 78% 29.92 in 10.0 mi SSE 6.9 mph - N/A   Clear
9:56 AM 70.0 °F - 57.9 °F 65% 29.93 in 10.0 mi South 10.4 mph - N/A   Clear
10:56 AM 73.9 °F - 57.9 °F 57% 29.92 in 10.0 mi SSW 10.4 mph - N/A   Clear
11:56 AM 75.9 °F - 57.9 °F 54% 29.91 in 10.0 mi SSW 5.8 mph - N/A   Clear
12:56 PM 79.0 °F - 56.8 °F 46% 29.87 in 10.0 mi SSW 5.8 mph - N/A   Clear
1:56 PM 79.9 °F - 54.9 °F 42% 29.83 in 10.0 mi Calm Calm - N/A   Clear
2:56 PM 82.9 °F 81.9 °F 54.0 °F 37% 29.80 in 10.0 mi NNW 5.8 mph - N/A   Clear
3:56 PM 84.9 °F - 52.0 °F 32% 29.78 in 10.0 mi Calm Calm - N/A   Clear
4:56 PM 83.8 °F - 48.9 °F 30% 29.78 in 10.0 mi Variable 5.8 mph - N/A   Clear
5:56 PM 81.9 °F - 47.8 °F 30% 29.79 in 10.0 mi NNE 6.9 mph - N/A   Clear
6:56 PM 78.8 °F - 48.2 °F 34% 29.83 in 10.0 mi NE 6.9 mph - N/A   Clear
7:56 PM 74.8 °F - 47.8 °F 38% 29.83 in 10.0 mi ENE 5.8 mph - N/A   Clear
8:56 PM 72.9 °F - 47.8 °F 41% 29.85 in 10.0 mi NE 5.8 mph - N/A   Clear
9:56 PM 70.9 °F - 47.8 °F 44% 29.86 in 10.0 mi ENE 5.8 mph - N/A   Clear
10:56 PM 66.9 °F - 47.8 °F 50% 29.86 in 10.0 mi ENE 6.9 mph - N/A   Clear
11:56 PM 68.9 °F - 47.8 °F 47% 29.87 in 10.0 mi ENE 6.9 mph - N/A   Clear